Location: Namasale
(1.5000°N, 32.6167°E)
Time: 23:16:44
(UTC+00:00)

Transit 2A - Pass Details

Date: 27 April 2021
Orbit: 602 x 957 km, 66.7° (Epoch: 11 May)

Event Time Altitude Azimuth Distance (km) Brightness Sun altitude
Rises 14:30:14 0° 310° (NW) 3,129 10.3 19.0°
Reaches altitude 10° 14:33:10 10° 291° (WNW) 2,279 10.8 18.3°
Maximum altitude 14:36:45 19° 248° (WSW) 1,835 9.1 17.4°
Drops below altitude 10° 14:40:34 10° 205° (SSW) 2,450 8.8 16.5°
Sets 14:43:53 0° 187° (S) 3,456 9.3 15.7°
